Location: Newark
(12.4436°N, 0.6167°W)
Time: 18:51:55
(UTC+00:00)

Vanguard 2 - Pass Details

Date: 10 December 2019
Orbit: 553 x 2938 km, 32.9° (Epoch: 27 January)

Event Time Altitude Azimuth Distance (km) Brightness Sun altitude
Rises 08:07:10 0° 303° (WNW) 6,588 11.7 24.0°
Reaches altitude 10° 08:11:56 10° 304° (NW) 5,360 11.3 25.0°
Maximum altitude 08:27:01 81° 31° (NNE) 1,905 10.0 28.0°
Drops below altitude 10° 08:35:59 10° 118° (ESE) 3,359 12.4 29.8°
Sets 08:38:19 0° 119° (ESE) 4,079 12.4 30.3°
